Time,TemperatureF,DewpointF,PressureIn,WindDirection,WindDirectionDegrees,WindSpeedMPH,WindSpeedGustMPH,Humidity,HourlyPrecipIn,Conditions,Clouds,dailyrainin,SoftwareType,DateUTC
2013-03-19 00:05:00,38.9,38.1,29.84,WNW,297,2.0,4.0,97,0.00,,,0.18,Wunderground v.1.15,2013-03-19 04:05:00,
2013-03-19 00:14:00,38.9,38.1,29.84,NW,316,2.0,4.0,97,0.00,,,0.18,Wunderground v.1.15,2013-03-19 04:14:00,
2013-03-19 00:19:00,38.9,38.1,29.86,SW,232,2.0,2.0,97,0.00,,,0.18,Wunderground v.1.15,2013-03-19 04:19:00,
2013-03-19 00:49:00,38.8,38.0,29.82,ENE,75,1.0,4.0,97,0.00,,,0.18,Wunderground v.1.15,2013-03-19 04:49:00,
2013-03-19 00:54:00,38.8,38.0,29.82,NW,312,1.0,4.0,97,0.00,,,0.18,Wunderground v.1.15,2013-03-19 04:54:00,
2013-03-19 00:59:00,38.8,38.0,29.82,NW,312,1.0,1.0,97,0.00,,,0.18,Wunderground v.1.15,2013-03-19 04:59:00,
2013-03-19 01:04:00,38.8,38.0,29.81,NW,312,0.0,4.0,97,0.00,,,0.00,Wunderground v.1.15,2013-03-19 05:04:00,
2013-03-19 01:14:00,38.8,38.0,29.81,NW,312,0.0,4.0,97,0.00,,,0.00,Wunderground v.1.15,2013-03-19 05:14:00,
2013-03-19 01:19:00,38.8,38.0,29.81,NW,312,0.0,4.0,97,0.00,,,0.00,Wunderground v.1.15,2013-03-19 05:19:00,
2013-03-19 01:24:00,38.7,37.9,29.81,NW,312,1.0,4.0,97,0.00,,,0.00,Wunderground v.1.15,2013-03-19 05:24:00,
2013-03-19 01:29:00,38.6,37.8,29.81,NW,312,1.0,1.0,97,0.00,,,0.00,Wunderground v.1.15,2013-03-19 05:29:00,
2013-03-19 01:34:00,38.6,37.8,29.81,West,281,0.0,4.0,97,0.00,,,0.00,Wunderground v.1.15,2013-03-19 05:34:00,
2013-03-19 01:44:00,38.6,37.8,29.81,West,281,0.0,4.0,97,0.00,,,0.00,Wunderground v.1.15,2013-03-19 05:44:00,
2013-03-19 01:49:00,38.6,37.8,29.81,West,281,0.0,4.0,97,0.00,,,0.00,Wunderground v.1.15,2013-03-19 05:49:00,
2013-03-19 01:54:00,38.6,37.8,29.81,NW,310,1.0,4.0,97,0.00,,,0.00,Wunderground v.1.15,2013-03-19 05:54:00,
2013-03-19 01:59:00,38.6,37.8,29.81,NW,310,0.0,4.0,97,0.00,,,0.00,Wunderground v.1.15,2013-03-19 05:59:00,
2013-03-19 02:04:00,38.6,37.8,29.80,NW,310,0.0,4.0,97,0.00,,,0.00,Wunderground v.1.15,2013-03-19 06:04:00,
2013-03-19 02:14:00,38.6,37.8,29.80,NW,310,0.0,4.0,97,0.00,,,0.00,Wunderground v.1.15,2013-03-19 06:14:00,
2013-03-19 02:19:00,38.6,37.8,29.80,NW,310,0.0,4.0,97,0.00,,,0.00,Wunderground v.1.15,2013-03-19 06:19:00,
2013-03-19 02:24:00,38.5,37.7,29.80,NW,310,0.0,4.0,97,0.00,,,0.00,Wunderground v.1.15,2013-03-19 06:24:00,
2013-03-19 02:29:00,38.5,37.7,29.79,NW,323,0.0,4.0,97,0.00,,,0.00,Wunderground v.1.15,2013-03-19 06:29:00,
2013-03-19 02:34:00,38.5,37.7,29.79,NW,323,0.0,4.0,97,0.00,,,0.00,Wunderground v.1.15,2013-03-19 06:34:00,
2013-03-19 02:44:00,38.5,37.7,29.79,NW,323,0.0,4.0,97,0.00,,,0.00,Wunderground v.1.15,2013-03-19 06:44:00,
2013-03-19 02:49:00,38.5,37.7,29.79,NW,323,0.0,4.0,97,0.00,,,0.00,Wunderground v.1.15,2013-03-19 06:49:00,
2013-03-19 02:54:00,38.4,37.6,29.79,NW,323,0.0,4.0,97,0.00,,,0.00,Wunderground v.1.15,2013-03-19 06:54:00,
2013-03-19 03:04:00,38.3,37.5,29.78,NW,323,1.0,4.0,97,0.00,,,0.00,Wunderground v.1.15,2013-03-19 07:04:00,
2013-03-19 03:09:00,38.3,37.5,29.78,WNW,293,1.0,4.0,97,0.00,,,0.00,Wunderground v.1.15,2013-03-19 07:09:00,
2013-03-19 03:14:00,38.2,37.4,29.78,WNW,302,1.0,4.0,97,0.00,,,0.00,Wunderground v.1.15,2013-03-19 07:14:00,
2013-03-19 03:19:00,38.1,37.3,29.78,WNW,302,1.0,4.0,97,0.00,,,0.00,Wunderground v.1.15,2013-03-19 07:19:00,
2013-03-19 03:24:00,38.1,37.3,29.78,WNW,302,1.0,4.0,97,0.00,,,0.00,Wunderground v.1.15,2013-03-19 07:24:00,
2013-03-19 03:34:00,38.0,37.2,29.78,WNW,302,0.0,4.0,97,0.00,,,0.00,Wunderground v.1.15,2013-03-19 07:34:00,
2013-03-19 03:39:00,38.0,37.2,29.78,North,349,0.0,4.0,97,0.00,,,0.00,Wunderground v.1.15,2013-03-19 07:39:00,
2013-03-19 03:44:00,38.0,37.2,29.78,North,349,1.0,4.0,97,0.00,,,0.00,Wunderground v.1.15,2013-03-19 07:44:00,
2013-03-19 03:49:00,38.0,37.2,29.76,WNW,292,1.0,1.0,97,0.00,,,0.00,Wunderground v.1.15,2013-03-19 07:49:00,
2013-03-19 03:54:00,38.0,37.2,29.76,WNW,292,0.0,4.0,97,0.00,,,0.00,Wunderground v.1.15,2013-03-19 07:54:00,
2013-03-19 04:04:00,38.0,37.2,29.76,WNW,292,1.0,4.0,97,0.00,,,0.00,Wunderground v.1.15,2013-03-19 08:04:00,
2013-03-19 04:09:00,38.0,37.2,29.76,WNW,292,1.0,1.0,97,0.00,,,0.00,Wunderground v.1.15,2013-03-19 08:09:00,
2013-03-19 04:14:00,38.0,37.2,29.76,WNW,292,0.0,4.0,97,0.00,,,0.00,Wunderground v.1.15,2013-03-19 08:14:00,
2013-03-19 04:19:00,38.0,37.2,29.76,WNW,292,1.0,4.0,97,0.00,,,0.00,Wunderground v.1.15,2013-03-19 08:19:00,
2013-03-19 04:24:00,37.9,37.1,29.76,WNW,292,1.0,4.0,97,0.00,,,0.00,Wunderground v.1.15,2013-03-19 08:24:00,
2013-03-19 04:34:00,38.0,37.2,29.76,WNW,292,1.0,4.0,97,0.00,,,0.00,Wunderground v.1.15,2013-03-19 08:34:00,
2013-03-19 04:39:00,38.0,37.2,29.76,WNW,292,1.0,4.0,97,0.00,,,0.00,Wunderground v.1.15,2013-03-19 08:39:00,
2013-03-19 04:44:00,38.0,37.2,29.76,WNW,292,1.0,4.0,97,0.00,,,0.00,Wunderground v.1.15,2013-03-19 08:44:00,
2013-03-19 04:49:00,38.0,37.2,29.76,WNW,292,1.0,4.0,97,0.00,,,0.00,Wunderground v.1.15,2013-03-19 08:49:00,
2013-03-19 04:59:00,38.0,37.2,29.76,WNW,292,0.0,4.0,97,0.00,,,0.00,Wunderground v.1.15,2013-03-19 08:59:00,
2013-03-19 05:04:00,38.1,37.3,29.76,WNW,292,0.0,4.0,97,0.00,,,0.00,Wunderground v.1.15,2013-03-19 09:04:00,
2013-03-19 05:09:00,38.1,37.3,29.76,WNW,292,1.0,1.0,97,0.00,,,0.00,Wunderground v.1.15,2013-03-19 09:09:00,
2013-03-19 05:14:00,38.1,37.3,29.76,WNW,292,1.0,4.0,97,0.00,,,0.00,Wunderground v.1.15,2013-03-19 09:14:00,
2013-03-19 05:24:00,38.1,37.3,29.76,WNW,292,1.0,4.0,97,0.00,,,0.00,Wunderground v.1.15,2013-03-19 09:24:00,
2013-03-19 05:29:00,38.1,37.3,29.76,WNW,292,0.0,4.0,97,0.00,,,0.00,Wunderground v.1.15,2013-03-19 09:29:00,
2013-03-19 05:34:00,38.1,37.3,29.76,SW,235,0.0,4.0,97,0.00,,,0.00,Wunderground v.1.15,2013-03-19 09:34:00,
2013-03-19 05:39:00,38.1,37.6,29.76,SW,234,0.0,4.0,98,0.00,,,0.00,Wunderground v.1.15,2013-03-19 09:39:00,
2013-03-19 05:44:00,38.1,37.3,29.76,SW,234,1.0,4.0,97,0.00,,,0.00,Wunderground v.1.15,2013-03-19 09:44:00,
2013-03-19 05:54:00,38.3,37.8,29.76,SW,228,0.0,4.0,98,0.00,,,0.00,Wunderground v.1.15,2013-03-19 09:54:00,
2013-03-19 05:59:00,38.4,37.6,29.76,SW,228,0.0,4.0,97,0.00,,,0.00,Wunderground v.1.15,2013-03-19 09:59:00,
2013-03-19 06:04:00,38.4,37.9,29.76,SSW,210,0.0,4.0,98,0.00,,,0.00,Wunderground v.1.15,2013-03-19 10:04:00,
2013-03-19 06:09:00,38.5,38.0,29.76,SSW,210,1.0,4.0,98,0.00,,,0.00,Wunderground v.1.15,2013-03-19 10:09:00,
2013-03-19 06:19:00,38.6,38.1,29.77,West,271,0.0,4.0,98,0.00,,,0.00,Wunderground v.1.15,2013-03-19 10:19:00,
2013-03-19 06:24:00,38.6,38.1,29.77,SW,234,0.0,4.0,98,0.00,,,0.00,Wunderground v.1.15,2013-03-19 10:24:00,
2013-03-19 06:29:00,38.7,38.2,29.77,SW,230,0.0,4.0,98,0.00,,,0.00,Wunderground v.1.15,2013-03-19 10:29:00,
2013-03-19 06:34:00,38.7,38.2,29.76,SW,230,0.0,4.0,98,0.00,,,0.00,Wunderground v.1.15,2013-03-19 10:34:00,
2013-03-19 06:44:00,38.8,38.3,29.76,SW,230,0.0,4.0,98,0.00,,,0.00,Wunderground v.1.15,2013-03-19 10:44:00,
2013-03-19 06:49:00,38.8,38.3,29.76,SW,230,0.0,4.0,98,0.00,,,0.00,Wunderground v.1.15,2013-03-19 10:49:00,
2013-03-19 06:54:00,38.9,38.4,29.76,South,184,0.0,4.0,98,0.00,,,0.00,Wunderground v.1.15,2013-03-19 10:54:00,
2013-03-19 06:59:00,38.9,38.4,29.76,South,184,0.0,4.0,98,0.00,,,0.00,Wunderground v.1.15,2013-03-19 10:59:00,
2013-03-19 07:04:00,38.9,38.4,29.76,WSW,243,0.0,4.0,98,0.00,,,0.00,Wunderground v.1.15,2013-03-19 11:04:00,
2013-03-19 07:14:00,39.0,38.5,29.76,WNW,288,0.0,4.0,98,0.00,,,0.00,Wunderground v.1.15,2013-03-19 11:14:00,
2013-03-19 07:19:00,39.0,38.5,29.76,WNW,288,0.0,4.0,98,0.00,,,0.00,Wunderground v.1.15,2013-03-19 11:19:00,
2013-03-19 07:24:00,39.0,38.5,29.76,WNW,288,1.0,4.0,98,0.00,,,0.00,Wunderground v.1.15,2013-03-19 11:24:00,
2013-03-19 07:29:00,39.0,38.5,29.76,WNW,288,1.0,1.0,98,0.00,,,0.00,Wunderground v.1.15,2013-03-19 11:29:00,
2013-03-19 07:34:00,39.0,38.5,29.76,WNW,288,1.0,4.0,98,0.00,,,0.00,Wunderground v.1.15,2013-03-19 11:34:00,
2013-03-19 07:44:00,39.1,38.6,29.76,NW,315,1.0,4.0,98,0.00,,,0.00,Wunderground v.1.15,2013-03-19 11:44:00,
2013-03-19 07:49:00,39.1,38.6,29.77,WNW,290,1.0,1.0,98,0.00,,,0.00,Wunderground v.1.15,2013-03-19 11:49:00,
2013-03-19 07:54:00,39.2,38.7,29.77,WNW,290,1.0,4.0,98,0.00,,,0.00,Wunderground v.1.15,2013-03-19 11:54:00,
2013-03-19 07:59:00,39.2,38.7,29.77,WNW,290,1.0,4.0,98,0.00,,,0.00,Wunderground v.1.15,2013-03-19 11:59:00,
2013-03-19 08:09:00,39.4,38.9,29.77,West,260,1.0,1.0,98,0.00,,,0.00,Wunderground v.1.15,2013-03-19 12:09:00,
2013-03-19 08:14:00,39.6,39.1,29.77,WSW,257,1.0,4.0,98,0.00,,,0.00,Wunderground v.1.15,2013-03-19 12:14:00,
2013-03-19 08:19:00,39.8,39.3,29.78,West,260,2.0,4.0,98,0.00,,,0.00,Wunderground v.1.15,2013-03-19 12:19:00,
2013-03-19 08:24:00,40.0,39.5,29.78,West,274,2.0,4.0,98,0.00,,,0.00,Wunderground v.1.15,2013-03-19 12:24:00,
2013-03-19 08:34:00,40.4,39.9,29.80,West,271,2.0,4.0,98,0.00,,,0.00,Wunderground v.1.15,2013-03-19 12:34:00,
2013-03-19 08:39:00,40.7,40.2,29.80,NW,309,2.0,4.0,98,0.00,,,0.00,Wunderground v.1.15,2013-03-19 12:39:00,
2013-03-19 08:44:00,40.9,40.4,29.80,NW,304,3.0,4.0,98,0.00,,,0.00,Wunderground v.1.15,2013-03-19 12:44:00,
2013-03-19 08:54:00,41.0,40.5,29.81,WNW,282,2.0,4.0,98,0.00,,,0.00,Wunderground v.1.15,2013-03-19 12:54:00,
2013-03-19 08:59:00,41.1,40.6,29.81,NW,308,2.0,4.0,98,0.00,,,0.00,Wunderground v.1.15,2013-03-19 12:59:00,
2013-03-19 09:04:00,41.2,40.7,29.81,West,271,2.0,4.0,98,0.00,,,0.00,Wunderground v.1.15,2013-03-19 13:04:00,
2013-03-19 09:09:00,41.3,40.8,29.81,NW,307,2.0,4.0,98,0.00,,,0.00,Wunderground v.1.15,2013-03-19 13:09:00,
2013-03-19 09:19:00,41.5,41.0,29.82,West,281,3.0,3.0,98,0.00,,,0.00,Wunderground v.1.15,2013-03-19 13:19:00,
2013-03-19 09:24:00,41.7,41.2,29.82,West,281,2.0,4.0,98,0.00,,,0.00,Wunderground v.1.15,2013-03-19 13:24:00,
2013-03-19 09:29:00,41.9,41.1,29.82,WNW,297,1.0,4.0,97,0.00,,,0.00,Wunderground v.1.15,2013-03-19 13:29:00,
2013-03-19 09:34:00,42.2,41.4,29.83,NW,308,1.0,4.0,97,0.00,,,0.00,Wunderground v.1.15,2013-03-19 13:34:00,
2013-03-19 09:44:00,42.9,42.1,29.83,NW,307,2.0,4.0,97,0.00,,,0.00,Wunderground v.1.15,2013-03-19 13:44:00,
2013-03-19 09:49:00,43.3,42.2,29.83,West,266,2.0,4.0,96,0.00,,,0.00,Wunderground v.1.15,2013-03-19 13:49:00,
2013-03-19 09:54:00,43.6,42.3,29.83,WNW,292,2.0,4.0,95,0.00,,,0.00,Wunderground v.1.15,2013-03-19 13:54:00,
2013-03-19 09:59:00,44.1,42.8,29.83,WNW,293,2.0,4.0,95,0.00,,,0.00,Wunderground v.1.15,2013-03-19 13:59:00,
2013-03-19 10:04:00,44.6,43.0,29.82,West,276,2.0,4.0,94,0.00,,,0.00,Wunderground v.1.15,2013-03-19 14:04:00,
2013-03-19 10:14:00,45.5,43.6,29.82,WNW,288,2.0,4.0,93,0.00,,,0.00,Wunderground v.1.15,2013-03-19 14:14:00,
2013-03-19 10:19:00,46.1,43.9,29.82,WNW,297,2.0,4.0,92,0.00,,,0.00,Wunderground v.1.15,2013-03-19 14:19:00,
2013-03-19 10:24:00,46.8,44.3,29.82,NNW,344,2.0,4.0,91,0.00,,,0.00,Wunderground v.1.15,2013-03-19 14:24:00,
2013-03-19 10:29:00,47.5,44.7,29.82,West,277,3.0,5.0,90,0.00,,,0.00,Wunderground v.1.15,2013-03-19 14:29:00,
2013-03-19 10:34:00,48.0,44.6,29.82,NW,310,3.0,5.0,88,0.00,,,0.00,Wunderground v.1.15,2013-03-19 14:34:00,
2013-03-19 10:44:00,48.7,45.3,29.82,North,1,3.0,4.0,88,0.00,,,0.00,Wunderground v.1.15,2013-03-19 14:44:00,
2013-03-19 10:49:00,49.3,45.6,29.83,NNW,339,2.0,4.0,87,0.00,,,0.00,Wunderground v.1.15,2013-03-19 14:49:00,
2013-03-19 10:54:00,49.9,45.3,29.83,WSW,249,3.0,4.0,84,0.00,,,0.00,Wunderground v.1.15,2013-03-19 14:54:00,
2013-03-19 10:59:00,50.4,45.4,29.83,West,264,3.0,4.0,83,0.00,,,0.00,Wunderground v.1.15,2013-03-19 14:59:00,
2013-03-19 11:09:00,51.2,45.9,29.83,West,268,4.0,4.0,82,0.00,,,0.00,Wunderground v.1.15,2013-03-19 15:09:00,
2013-03-19 11:14:00,51.7,45.7,29.83,WNW,295,3.0,5.0,80,0.00,,,0.00,Wunderground v.1.15,2013-03-19 15:14:00,
2013-03-19 11:19:00,52.3,46.0,29.83,WNW,294,3.0,4.0,79,0.00,,,0.00,Wunderground v.1.15,2013-03-19 15:19:00,
2013-03-19 11:24:00,52.3,44.6,29.83,West,281,4.0,5.0,75,0.00,,,0.00,Wunderground v.1.15,2013-03-19 15:24:00,
2013-03-19 11:34:00,52.8,44.4,29.83,WNW,290,3.0,4.0,73,0.00,,,0.00,Wunderground v.1.15,2013-03-19 15:34:00,
2013-03-19 11:39:00,53.2,42.9,29.83,NNW,341,3.0,4.0,68,0.00,,,0.00,Wunderground v.1.15,2013-03-19 15:39:00,
2013-03-19 11:44:00,53.4,42.3,29.83,North,359,3.0,4.0,66,0.00,,,0.00,Wunderground v.1.15,2013-03-19 15:44:00,
2013-03-19 11:49:00,54.0,42.5,29.82,West,281,3.0,4.0,65,0.00,,,0.00,Wunderground v.1.15,2013-03-19 15:49:00,
2013-03-19 11:54:00,54.4,41.6,29.82,WSW,257,4.0,4.0,62,0.00,,,0.00,Wunderground v.1.15,2013-03-19 15:54:00,
2013-03-19 12:05:00,55.1,43.1,29.82,NNW,329,3.0,7.0,64,0.00,,,0.00,Wunderground v.1.15,2013-03-19 16:05:00,
2013-03-19 12:14:00,56.6,41.1,29.82,NW,323,2.0,7.0,56,0.00,,,0.00,Wunderground v.1.15,2013-03-19 16:14:00,
2013-03-19 12:19:00,57.2,41.6,29.81,WNW,283,2.0,7.0,56,0.00,,,0.00,Wunderground v.1.15,2013-03-19 16:19:00,
2013-03-19 12:24:00,57.3,40.8,29.81,NW,304,2.0,7.0,54,0.00,,,0.00,Wunderground v.1.15,2013-03-19 16:24:00,
2013-03-19 12:29:00,58.2,41.1,29.81,NW,321,2.0,7.0,53,0.00,,,0.00,Wunderground v.1.15,2013-03-19 16:29:00,
2013-03-19 12:39:00,58.9,39.2,29.81,NW,322,3.0,7.0,48,0.00,,,0.00,Wunderground v.1.15,2013-03-19 16:39:00,
2013-03-19 12:44:00,59.7,40.5,29.81,North,8,3.0,7.0,49,0.00,,,0.00,Wunderground v.1.15,2013-03-19 16:44:00,
2013-03-19 12:49:00,60.1,39.8,29.80,SSW,199,2.0,7.0,47,0.00,,,0.00,Wunderground v.1.15,2013-03-19 16:49:00,
2013-03-19 12:54:00,60.6,39.1,29.80,SW,227,3.0,7.0,45,0.00,,,0.00,Wunderground v.1.15,2013-03-19 16:54:00,
2013-03-19 13:04:00,60.8,38.7,29.81,WSW,255,3.0,7.0,44,0.00,,,0.00,Wunderground v.1.15,2013-03-19 17:04:00,
2013-03-19 13:09:00,60.7,35.6,29.81,WNW,290,3.0,7.0,39,0.00,,,0.00,Wunderground v.1.15,2013-03-19 17:09:00,
2013-03-19 13:14:00,60.5,36.7,29.81,SW,226,4.0,7.0,41,0.00,,,0.00,Wunderground v.1.15,2013-03-19 17:14:00,
2013-03-19 13:19:00,60.9,36.4,29.81,WNW,295,3.0,7.0,40,0.00,,,0.00,Wunderground v.1.15,2013-03-19 17:19:00,
2013-03-19 13:24:00,61.2,33.3,29.81,NW,307,4.0,7.0,35,0.00,,,0.00,Wunderground v.1.15,2013-03-19 17:24:00,
2013-03-19 13:34:00,61.5,36.3,29.81,WSW,243,5.0,7.0,39,0.00,,,0.00,Wunderground v.1.15,2013-03-19 17:34:00,
2013-03-19 13:39:00,61.8,33.8,29.81,WNW,299,3.0,3.0,35,0.00,,,0.00,Wunderground v.1.15,2013-03-19 17:39:00,
2013-03-19 13:44:00,61.9,34.6,29.81,WSW,255,3.0,4.0,36,0.00,,,0.00,Wunderground v.1.15,2013-03-19 17:44:00,
2013-03-19 13:54:00,62.7,31.6,29.80,West,277,4.0,5.0,31,0.00,,,0.00,Wunderground v.1.15,2013-03-19 17:54:00,
2013-03-19 13:59:00,62.7,33.9,29.80,West,276,4.0,7.0,34,0.00,,,0.00,Wunderground v.1.15,2013-03-19 17:59:00,
2013-03-19 14:04:00,63.0,30.2,29.80,WSW,249,4.0,7.0,29,0.00,,,0.00,Wunderground v.1.15,2013-03-19 18:04:00,
2013-03-19 14:09:00,62.8,30.0,29.80,WSW,257,5.0,5.0,29,0.00,,,0.00,Wunderground v.1.15,2013-03-19 18:09:00,
2013-03-19 14:14:00,63.0,31.0,29.80,WNW,290,5.0,7.0,30,0.00,,,0.00,Wunderground v.1.15,2013-03-19 18:14:00,
2013-03-19 14:24:00,64.0,29.3,29.80,West,262,3.0,7.0,27,0.00,,,0.00,Wunderground v.1.15,2013-03-19 18:24:00,
2013-03-19 14:29:00,64.0,30.2,29.80,WSW,249,3.0,7.0,28,0.00,,,0.00,Wunderground v.1.15,2013-03-19 18:29:00,
2013-03-19 14:34:00,64.1,27.5,29.79,West,267,4.0,7.0,25,0.00,,,0.00,Wunderground v.1.15,2013-03-19 18:34:00,
2013-03-19 14:39:00,64.3,27.7,29.79,NW,307,5.0,5.0,25,0.00,,,0.00,Wunderground v.1.15,2013-03-19 18:39:00,
2013-03-19 14:45:00,64.8,27.1,29.78,West,262,4.0,7.0,24,0.00,,,0.00,Wunderground v.1.15,2013-03-19 18:45:00,
2013-03-19 14:54:00,65.6,24.6,29.78,NW,317,4.0,7.0,21,0.00,,,0.00,Wunderground v.1.15,2013-03-19 18:54:00,
2013-03-19 15:04:00,66.0,28.1,29.79,WNW,283,4.0,7.0,24,0.00,,,0.00,Wunderground v.1.15,2013-03-19 19:04:00,
2013-03-19 15:09:00,66.3,27.4,29.79,West,269,3.0,3.0,23,0.00,,,0.00,Wunderground v.1.15,2013-03-19 19:09:00,
2013-03-19 15:14:00,65.7,25.8,29.79,WNW,288,4.0,4.0,22,0.00,,,0.00,Wunderground v.1.15,2013-03-19 19:14:00,
2013-03-19 15:19:00,65.2,26.4,29.78,West,259,5.0,5.0,23,0.00,,,0.00,Wunderground v.1.15,2013-03-19 19:19:00,
2013-03-19 15:24:00,64.7,26.0,29.78,West,273,4.0,7.0,23,0.00,,,0.00,Wunderground v.1.15,2013-03-19 19:24:00,
2013-03-19 15:34:00,64.3,25.7,29.78,WNW,295,5.0,7.0,23,0.00,,,0.00,Wunderground v.1.15,2013-03-19 19:34:00,
2013-03-19 15:39:00,64.5,26.9,29.78,West,277,4.0,4.0,24,0.00,,,0.00,Wunderground v.1.15,2013-03-19 19:39:00,
2013-03-19 15:44:00,64.3,26.7,29.78,SW,224,4.0,7.0,24,0.00,,,0.00,Wunderground v.1.15,2013-03-19 19:44:00,
2013-03-19 15:49:00,64.2,25.6,29.79,WNW,287,5.0,7.0,23,0.00,,,0.00,Wunderground v.1.15,2013-03-19 19:49:00,
2013-03-19 15:54:00,64.2,24.5,29.79,WNW,294,6.0,7.0,22,0.00,,,0.00,Wunderground v.1.15,2013-03-19 19:54:00,
2013-03-19 16:04:00,64.4,24.7,29.79,WSW,257,5.0,7.0,22,0.00,,,0.00,Wunderground v.1.15,2013-03-19 20:04:00,
2013-03-19 16:09:00,64.3,23.5,29.79,West,277,5.0,7.0,21,0.00,,,0.00,Wunderground v.1.15,2013-03-19 20:09:00,
2013-03-19 16:14:00,64.1,23.3,29.79,West,270,7.0,7.0,21,0.00,,,0.00,Wunderground v.1.15,2013-03-19 20:14:00,
2013-03-19 16:24:00,64.5,24.8,29.79,NW,305,5.0,7.0,22,0.00,,,0.00,Wunderground v.1.15,2013-03-19 20:24:00,
2013-03-19 16:29:00,64.8,23.9,29.79,NW,314,6.0,6.0,21,0.00,,,0.00,Wunderground v.1.15,2013-03-19 20:29:00,
2013-03-19 16:34:00,65.0,22.9,29.80,WNW,290,6.0,7.0,20,0.00,,,0.00,Wunderground v.1.15,2013-03-19 20:34:00,
2013-03-19 16:39:00,65.2,24.2,29.80,West,279,6.0,6.0,21,0.00,,,0.00,Wunderground v.1.15,2013-03-19 20:39:00,
2013-03-19 16:44:00,65.2,25.4,29.80,WNW,287,5.0,7.0,22,0.00,,,0.00,Wunderground v.1.15,2013-03-19 20:44:00,
2013-03-19 16:54:00,65.0,24.1,29.80,West,267,6.0,12.0,21,0.00,,,0.00,Wunderground v.1.15,2013-03-19 20:54:00,
2013-03-19 16:59:00,64.8,22.7,29.80,NW,311,7.0,7.0,20,0.00,,,0.00,Wunderground v.1.15,2013-03-19 20:59:00,
2013-03-19 17:04:00,64.9,24.0,29.80,NW,315,6.0,7.0,21,0.00,,,0.00,Wunderground v.1.15,2013-03-19 21:04:00,
2013-03-19 17:09:00,64.7,23.8,29.80,NW,310,5.0,5.0,21,0.00,,,0.00,Wunderground v.1.15,2013-03-19 21:09:00,
2013-03-19 17:19:00,64.9,24.0,29.80,West,266,4.0,7.0,21,0.00,,,0.00,Wunderground v.1.15,2013-03-19 21:19:00,
2013-03-19 17:24:00,65.0,22.9,29.80,West,272,5.0,7.0,20,0.00,,,0.00,Wunderground v.1.15,2013-03-19 21:24:00,
2013-03-19 17:29:00,65.0,22.9,29.80,West,263,6.0,6.0,20,0.00,,,0.00,Wunderground v.1.15,2013-03-19 21:29:00,
2013-03-19 17:34:00,64.9,21.6,29.80,West,269,6.0,7.0,19,0.00,,,0.00,Wunderground v.1.15,2013-03-19 21:34:00,
2013-03-19 17:39:00,64.7,21.4,29.80,NW,307,6.0,6.0,19,0.00,,,0.00,Wunderground v.1.15,2013-03-19 21:39:00,
2013-03-19 17:49:00,64.5,21.3,29.80,NW,305,6.0,6.0,19,0.00,,,0.00,Wunderground v.1.15,2013-03-19 21:49:00,
2013-03-19 17:54:00,64.3,23.5,29.80,WNW,298,5.0,7.0,21,0.00,,,0.00,Wunderground v.1.15,2013-03-19 21:54:00,
2013-03-19 17:59:00,64.0,22.1,29.80,WNW,294,4.0,7.0,20,0.00,,,0.00,Wunderground v.1.15,2013-03-19 21:59:00,
2013-03-19 18:09:00,63.7,21.8,29.81,NW,304,5.0,7.0,20,0.00,,,0.00,Wunderground v.1.15,2013-03-19 22:09:00,
2013-03-19 18:14:00,63.5,21.7,29.81,West,269,5.0,7.0,20,0.00,,,0.00,Wunderground v.1.15,2013-03-19 22:14:00,
2013-03-19 18:19:00,63.3,21.5,29.81,SW,233,5.0,7.0,20,0.00,,,0.00,Wunderground v.1.15,2013-03-19 22:19:00,
2013-03-19 18:24:00,63.0,22.4,29.81,NW,310,5.0,7.0,21,0.00,,,0.00,Wunderground v.1.15,2013-03-19 22:24:00,
2013-03-19 18:29:00,62.6,19.7,29.81,WNW,282,6.0,7.0,19,0.00,,,0.00,Wunderground v.1.15,2013-03-19 22:29:00,
2013-03-19 18:39:00,62.0,20.4,29.83,WNW,290,5.0,5.0,20,0.00,,,0.00,Wunderground v.1.15,2013-03-19 22:39:00,
2013-03-19 18:44:00,61.6,21.2,29.83,West,271,4.0,7.0,21,0.00,,,0.00,Wunderground v.1.15,2013-03-19 22:44:00,
2013-03-19 18:49:00,61.3,19.8,29.83,West,259,4.0,4.0,20,0.00,,,0.00,Wunderground v.1.15,2013-03-19 22:49:00,
2013-03-19 18:54:00,61.0,19.6,29.83,WSW,254,4.0,7.0,20,0.00,,,0.00,Wunderground v.1.15,2013-03-19 22:54:00,
2013-03-19 19:04:00,60.5,20.3,29.84,WNW,288,4.0,7.0,21,0.00,,,0.00,Wunderground v.1.15,2013-03-19 23:04:00,
2013-03-19 19:09:00,60.3,20.2,29.84,WNW,297,4.0,7.0,21,0.00,,,0.00,Wunderground v.1.15,2013-03-19 23:09:00,
2013-03-19 19:14:00,59.9,22.0,29.84,WNW,298,3.0,7.0,23,0.00,,,0.00,Wunderground v.1.15,2013-03-19 23:14:00,
2013-03-19 19:19:00,59.6,20.7,29.85,West,275,3.0,7.0,22,0.00,,,0.00,Wunderground v.1.15,2013-03-19 23:19:00,
2013-03-19 19:24:00,59.4,21.5,29.85,SW,223,3.0,7.0,23,0.00,,,0.00,Wunderground v.1.15,2013-03-19 23:24:00,
2013-03-19 19:34:00,59.0,21.2,29.86,West,259,3.0,7.0,23,0.00,,,0.00,Wunderground v.1.15,2013-03-19 23:34:00,
2013-03-19 19:39:00,58.8,21.0,29.86,WNW,299,3.0,3.0,23,0.00,,,0.00,Wunderground v.1.15,2013-03-19 23:39:00,
2013-03-19 19:44:00,58.6,21.9,29.86,West,275,3.0,7.0,24,0.00,,,0.00,Wunderground v.1.15,2013-03-19 23:44:00,
2013-03-19 19:49:00,58.2,21.5,29.86,WNW,283,2.0,7.0,24,0.00,,,0.00,Wunderground v.1.15,2013-03-19 23:49:00,
2013-03-19 19:59:00,57.4,23.7,29.86,WNW,302,2.0,2.0,27,0.00,,,0.00,Wunderground v.1.15,2013-03-19 23:59:00,
2013-03-19 20:04:00,56.8,22.2,29.86,NW,307,2.0,3.0,26,0.00,,,0.00,Wunderground v.1.15,2013-03-20 00:04:00,
2013-03-19 20:09:00,56.6,23.0,29.86,West,268,2.0,7.0,27,0.00,,,0.00,Wunderground v.1.15,2013-03-20 00:09:00,
2013-03-19 20:14:00,56.3,23.6,29.86,NW,304,2.0,7.0,28,0.00,,,0.00,Wunderground v.1.15,2013-03-20 00:14:00,
2013-03-19 20:19:00,56.1,22.5,29.87,WNW,300,2.0,7.0,27,0.00,,,0.00,Wunderground v.1.15,2013-03-20 00:19:00,
2013-03-19 20:29:00,55.3,23.5,29.87,WNW,286,1.0,7.0,29,0.00,,,0.00,Wunderground v.1.15,2013-03-20 00:29:00,
2013-03-19 20:34:00,55.3,21.8,29.88,WNW,293,3.0,7.0,27,0.00,,,0.00,Wunderground v.1.15,2013-03-20 00:34:00,
2013-03-19 20:39:00,55.5,22.9,29.88,WNW,291,3.0,3.0,28,0.00,,,0.00,Wunderground v.1.15,2013-03-20 00:39:00,
2013-03-19 20:44:00,55.5,22.9,29.88,WNW,302,3.0,5.0,28,0.00,,,0.00,Wunderground v.1.15,2013-03-20 00:44:00,
2013-03-19 20:49:00,55.6,23.0,29.89,North,351,4.0,7.0,28,0.00,,,0.00,Wunderground v.1.15,2013-03-20 00:49:00,
2013-03-19 20:59:00,55.6,23.0,29.89,WNW,296,4.0,4.0,28,0.00,,,0.00,Wunderground v.1.15,2013-03-20 00:59:00,
2013-03-19 21:04:00,55.5,22.9,29.91,NW,325,4.0,7.0,28,0.00,,,0.00,Wunderground v.1.15,2013-03-20 01:04:00,
2013-03-19 21:09:00,55.2,21.8,29.91,NNW,329,3.0,7.0,27,0.00,,,0.00,Wunderground v.1.15,2013-03-20 01:09:00,
2013-03-19 21:14:00,55.0,21.6,29.91,NW,316,3.0,7.0,27,0.00,,,0.00,Wunderground v.1.15,2013-03-20 01:14:00,
2013-03-19 21:24:00,55.0,20.7,29.91,West,272,4.0,7.0,26,0.00,,,0.00,Wunderground v.1.15,2013-03-20 01:24:00,
2013-03-19 21:29:00,54.7,18.6,29.91,WNW,290,4.0,4.0,24,0.00,,,0.00,Wunderground v.1.15,2013-03-20 01:29:00,
2013-03-19 21:34:00,54.4,19.3,29.92,NW,321,3.0,7.0,25,0.00,,,0.00,Wunderground v.1.15,2013-03-20 01:34:00,
2013-03-19 21:39:00,54.1,18.1,29.92,WNW,300,3.0,3.0,24,0.00,,,0.00,Wunderground v.1.15,2013-03-20 01:39:00,
2013-03-19 21:49:00,53.7,14.6,29.93,West,279,3.0,3.0,21,0.00,,,0.00,Wunderground v.1.15,2013-03-20 01:49:00,
2013-03-19 21:54:00,53.5,14.5,29.93,WNW,290,3.0,7.0,21,0.00,,,0.00,Wunderground v.1.15,2013-03-20 01:54:00,
2013-03-19 21:59:00,53.3,14.3,29.93,WNW,291,3.0,7.0,21,0.00,,,0.00,Wunderground v.1.15,2013-03-20 01:59:00,
2013-03-19 22:04:00,53.0,12.9,29.94,West,278,3.0,7.0,20,0.00,,,0.00,Wunderground v.1.15,2013-03-20 02:04:00,
2013-03-19 22:09:00,52.8,12.8,29.94,WNW,282,3.0,7.0,20,0.00,,,0.00,Wunderground v.1.15,2013-03-20 02:09:00,
2013-03-19 22:19:00,52.3,12.4,29.94,West,277,3.0,7.0,20,0.00,,,0.00,Wunderground v.1.15,2013-03-20 02:19:00,
2013-03-19 22:24:00,52.0,10.9,29.94,WNW,300,3.0,7.0,19,0.00,,,0.00,Wunderground v.1.15,2013-03-20 02:24:00,
2013-03-19 22:29:00,52.1,11.0,29.94,WNW,302,4.0,4.0,19,0.00,,,0.00,Wunderground v.1.15,2013-03-20 02:29:00,
2013-03-19 22:34:00,51.9,9.6,29.95,WNW,301,3.0,7.0,18,0.00,,,0.00,Wunderground v.1.15,2013-03-20 02:34:00,
2013-03-19 22:39:00,51.8,9.6,29.95,NNW,342,3.0,7.0,18,0.00,,,0.00,Wunderground v.1.15,2013-03-20 02:39:00,
2013-03-19 22:49:00,51.2,11.4,29.95,NW,313,3.0,7.0,20,0.00,,,0.00,Wunderground v.1.15,2013-03-20 02:49:00,
2013-03-19 22:54:00,50.9,10.0,29.95,WNW,290,3.0,7.0,19,0.00,,,0.00,Wunderground v.1.15,2013-03-20 02:54:00,
2013-03-19 22:59:00,50.7,9.9,29.95,WNW,297,3.0,7.0,19,0.00,,,0.00,Wunderground v.1.15,2013-03-20 02:59:00,
2013-03-19 23:04:00,50.6,8.6,29.95,WNW,299,3.0,7.0,18,0.00,,,0.00,Wunderground v.1.15,2013-03-20 03:04:00,
2013-03-19 23:14:00,50.4,11.9,29.95,West,274,3.0,7.0,21,0.00,,,0.00,Wunderground v.1.15,2013-03-20 03:14:00,
2013-03-19 23:19:00,49.9,11.4,29.95,North,2,3.0,3.0,21,0.00,,,0.00,Wunderground v.1.15,2013-03-20 03:19:00,
2013-03-19 23:24:00,49.8,10.3,29.95,NW,323,3.0,7.0,20,0.00,,,0.00,Wunderground v.1.15,2013-03-20 03:24:00,
2013-03-19 23:29:00,49.7,10.2,29.95,NW,320,3.0,7.0,20,0.00,,,0.00,Wunderground v.1.15,2013-03-20 03:29:00,
2013-03-19 23:34:00,49.5,10.0,29.96,WNW,288,3.0,7.0,20,0.00,,,0.00,Wunderground v.1.15,2013-03-20 03:34:00,
2013-03-19 23:44:00,49.3,9.9,29.96,NW,304,3.0,7.0,20,0.00,,,0.00,Wunderground v.1.15,2013-03-20 03:44:00,
2013-03-19 23:49:00,49.2,11.9,29.97,WNW,282,2.0,7.0,22,0.00,,,0.00,Wunderground v.1.15,2013-03-20 03:49:00,
2013-03-19 23:54:00,48.9,11.7,29.97,WNW,282,2.0,7.0,22,0.00,,,0.00,Wunderground v.1.15,2013-03-20 03:54:00,
2013-03-19 23:59:00,48.7,10.4,29.96,WNW,303,2.0,7.0,21,0.00,,,0.00,Wunderground v.1.15,2013-03-20 03:59:00,